Location: Moscow
(55.7500°N, 37.5830°E)
Time: 03:57:25
(UTC+03:00)

FENGYUN 1C DEB - Pass Details

Date: 07 July 2022
Orbit: 583 x 834 km, 98.9° (Epoch: 14 August)

Event Time Altitude Azimuth Distance (km) Brightness Sun altitude
Rises 22:48:20 0° 201° (SSW) 3,260 ? -8.5°
Reaches altitude 10° 22:51:10 10° 216° (SW) 2,297 ? -8.7°
Maximum altitude 22:55:08 23° 267° (W) 1,540 ? -8.9°
Drops below altitude 10° 22:58:56 10° 320° (NW) 2,184 ? -9.1°
Sets 23:01:34 0° 335° (NNW) 3,060 ? -9.3°
